[[{"header":{"parameterUnit":"m.s-1","parameterCategory":1,"la1":30.2991,"la2":30.254,"lo1":-89.0895,"lo2":-89.0444,"dy":0.0017,"dx":0.0017,"nx":28,"ny":28,"refTime":"2023-09-04T21:00:00:Z","depth":0,"parameterNumber":2,"parameterNumberName":"U-component_of_WINDS"},"data":[0,0,0,0,0,0,0,0,0,0,0,0,0,0,0,0,0,0,0,0,0,0,0,0,0,0,0,0,0,0,0,0,0,0,0,0,0,0,0,0,0,0,0,0,0,0,0,0,0,0,0,0,0,0,0,0,0,0,-5.2231,-5.2231,0,-5.2213,-5.2213,-5.2213,-5.2172,-5.2171,-5.217,-5.2169,-5.215,-5.215,-5.215,0,0,0,0,0,0,0,0,0,0,0,0,0,-5.2229,-5.2229,-5.2231,-5.2231,-5.223,-5.2213,-5.2213,-5.2213,-5.2172,-5.2171,-5.217,-5.2169,-5.215,-5.215,-5.215,0,0,0,0,0,0,0,0,0,0,0,0,0,-5.2223,-5.2229,-5.2231,-5.2208,-5.2206,-5.2213,-5.2213,-5.2213,-5.2172,-5.2171,-5.2169,-5.2168,-5.215,-5.215,-5.2151,-5.2179,0,0,-5.2152,-5.2152,0,0,0,0,0,0,0,0,-5.2223,-5.2223,-5.2211,-5.2209,-5.2207,-5.2193,-5.2205,-5.2201,-5.2172,-5.2185,-5.2169,-5.2168,-5.2165,-5.2164,-5.2164,-5.2178,-5.2177,-5.2152,-5.2152,-5.2152,-5.2152,0,0,0,0,0,0,0,-5.2223,-5.2223,-5.2224,-5.2211,-5.2209,-5.2199,-5.2196,-5.2204,-5.2182,-5.2183,-5.218,-5.2179,-5.2164,-5.2164,-5.2163,-5.2177,-5.2152,-5.2152,-5.2153,-5.2153,-5.2214,-5.2215,0,0,0,0,0,0,-5.2227,-5.2224,-5.2224,-5.2223,-5.2212,-5.22,-5.2197,-5.2199,-5.2182,-5.2178,-5.218,-5.2177,-5.2163,-5.2163,-5.2162,-5.2194,-5.2152,-5.2153,-5.2153,-5.2213,-5.2214,-5.2216,0,0,0,0,0,0,-5.2227,-5.2228,-5.2225,-5.2223,-5.2222,-5.2201,-5.2204,-5.2199,-5.2199,-5.218,-5.2175,-5.2184,-5.2162,-5.2162,-5.2175,-5.2192,-5.2153,-5.2153,-5.2211,-5.2213,-5.2215,-5.2257,0,0,0,0,0,0,-5.2228,-5.2228,-5.2238,-5.2223,-5.2222,-5.2238,-5.2205,-5.22,-5.22,-5.2196,-5.2182,-5.2178,-5.2161,-5.2175,-5.2176,-5.2192,-5.2154,-5.2209,-5.2212,-5.2214,-5.2254,-5.226,-5.2266,0,0,0,0,0,-5.2228,-5.225,-5.2239,-5.2239,-5.2234,-5.2239,-5.2238,-5.2219,-5.2201,-5.2212,-5.22,-5.2179,-5.2191,-5.2177,-5.2177,-5.2194,-5.2208,-5.2211,-5.2214,-5.2251,-5.2259,-5.2266,0,0,0,0,0,0,-5.2267,-5.2248,-5.2235,-5.2254,-5.2249,-5.2232,-5.2244,-5.2227,-5.2227,-5.2223,-5.2198,-5.2195,-5.2212,-5.2205,-5.2189,-5.2221,-5.2196,-5.22,-5.2225,-5.2232,-5.2238,-5.2238,-5.2154,0,0,0,0,0,-5.2278,-5.2284,-5.2267,-5.2285,-5.2283,-5.2265,-5.2266,-5.2252,-5.2245,-5.2242,-5.2231,-5.2225,-5.2228,-5.223,-5.2231,-5.2254,-5.225,-5.2267,-5.2273,-5.2277,-5.228,-5.2291,-5.2298,-5.2226,-5.2226,-5.2226,0,0,-5.23,-5.2291,-5.2295,-5.2293,-5.2287,-5.2293,-5.2263,-5.2271,-5.2275,-5.2243,-5.2255,-5.2247,-5.2239,-5.2258,-5.2265,-5.2252,-5.2299,-5.2281,-5.2285,-5.2285,-5.2295,-5.2302,-5.2308,-5.2228,-5.2228,-5.2227,0,0,-5.2343,-5.2338,-5.2352,-5.2347,-5.2339,-5.2327,-5.2331,-5.2318,-5.2312,-5.2324,-5.23,-5.2306,-5.2311,-5.2306,-5.2304,-5.2349,-5.233,-5.2351,-5.238,-5.2392,-5.2397,-5.2402,-5.2417,-5.2422,-5.2354,-5.2354,-5.2354,0,-5.2371,-5.238,-5.2361,-5.2371,-5.237,-5.2344,-5.2358,-5.2355,-5.2348,-5.2348,-5.2334,-5.2341,-5.2333,-5.235,-5.2361,-5.2362,-5.2365,-5.235,-5.2398,-5.2403,-5.2407,-5.2421,-5.2426,-5.2356,-5.2356,-5.2356,-5.2356,0,-5.2415,-5.2422,-5.2434,-5.2429,-5.243,-5.2442,-5.2425,-5.2429,-5.2416,-5.2405,-5.2418,-5.2409,-5.2408,-5.2412,-5.2399,-5.2427,-5.2419,-5.2403,-5.2376,-5.2417,-5.2429,-5.2434,-5.236,-5.2359,-5.2358,-5.2358,0,0,-5.2479,-5.2465,-5.2469,-5.2467,-5.2458,-5.2462,-5.2474,-5.2474,-5.2477,-5.2475,-5.2483,-5.249,-5.2474,-5.2473,-5.2459,-5.247,-5.2505,-5.2451,-5.245,-5.246,-5.2535,-5.2546,-5.2552,-5.2493,-5.2494,-5.2495,-5.2535,0,-5.2518,-5.2536,-5.252,-5.2541,-5.2547,-5.2524,-5.2534,-5.253,-5.2521,-5.2525,-5.2516,-5.252,-5.25,-5.2499,-5.2509,-5.2498,-5.2519,-5.2496,-5.25,-5.25,-5.2499,-5.2559,-5.257,-5.2607,-5.254,-5.254,-5.2541,0,-5.2565,-5.2565,-5.2587,-5.2577,-5.2579,-5.2588,-5.2587,-5.2592,-5.2587,-5.258,-5.258,-5.2564,-5.2575,-5.2553,-5.2567,-5.2551,-5.2553,-5.2549,-5.255,-5.2547,-5.2521,-5.2555,-5.2619,-5.2624,-5.2549,-5.2548,-5.2548,0,-5.2607,-5.2613,-5.2627,-5.2626,-5.2615,-5.2622,-5.2619,-5.2613,-5.2614,-5.2614,-5.2615,-5.2616,-5.2616,-5.2618,-5.2603,-5.2588,-5.2619,-5.2595,-5.2612,-5.2613,-5.2617,-5.2617,-5.268,-5.2623,-5.2623,-5.2623,-5.2623,0,-5.2651,-5.2665,-5.2646,-5.2654,-5.2669,-5.2652,-5.2668,-5.2661,-5.2657,-5.2663,-5.2645,-5.2651,-5.2632,-5.2637,-5.2626,-5.2639,-5.264,-5.2634,-5.263,-5.2634,-5.2635,-5.2632,-5.2629,-5.2624,-5.2624,-5.2624,-5.2623,0,-5.2699,-5.2687,-5.27,-5.269,-5.2688,-5.27,-5.2691,-5.2699,-5.269,-5.2699,-5.27,-5.2687,-5.2692,-5.2678,-5.2681,-5.2673,-5.2692,-5.2685,-5.2693,-5.269,-5.2708,-5.2706,-5.277,-5.2777,-5.2717,-5.2718,-5.2719,0,-5.2726,-5.2736,-5.2728,-5.2732,-5.2729,-5.2735,-5.2736,-5.2721,-5.2724,-5.272,-5.2728,-5.2732,-5.2733,-5.2743,-5.2733,-5.2735,-5.2727,-5.275,-5.2727,-5.2731,-5.2725,-5.2724,-5.2724,-5.2753,-5.2754,-5.2754,-5.2755,0,-5.2775,-5.2769,-5.2773,-5.2775,-5.2777,-5.2778,-5.2777,-5.2781,-5.2765,-5.2769,-5.2774,-5.2776,-5.278,-5.2783,-5.2784,-5.278,-5.2764,-5.2763,-5.2767,-5.2769,-5.2773,-5.2769,-5.2703,-5.276,-5.276,-5.276,-5.2759,-5.2759,-5.2812,-5.282,-5.2816,-5.2821,-5.2819,-5.2819,-5.2826,-5.2819,-5.2823,-5.2825,-5.2816,-5.2823,-5.282,-5.2819,-5.2817,-5.2823,-5.2812,-5.2818,-5.2819,-5.282,-5.2822,-5.2774,-5.2823,-5.2823,-5.2823,-5.2823,-5.2822,0,-5.2859,-5.2856,-5.2861,-5.286,-5.2864,-5.2852,-5.2851,-5.2855,-5.2861,-5.286,-5.2863,-5.2869,-5.2873,-5.2865,-5.2868,-5.2874,-5.2867,-5.2875,-5.2873,-5.2872,-5.2832,-5.2828,-5.288,-5.288,-5.288,-5.288,-5.288,-5.288,-5.2883,-5.2896,-5.289,-5.2903,-5.2899,-5.2906,-5.2907,-5.2907,-5.2906,-5.2914,-5.2917,-5.2913,-5.2908,-5.2911,-5.2914,-5.2912,-5.2913,-5.2923,-5.2918,-5.288,-5.2875,-5.2869,-5.2865,-5.2924,-5.2924,-5.2956,-5.2957,-5.2957]},{"header":{"parameterUnit":"m.s-1","parameterCategory":1,"la1":30.2991,"la2":30.254,"lo1":-89.0895,"lo2":-89.0444,"dy":0.0017,"dx":0.0017,"nx":28,"ny":28,"refTime":"2023-09-04T21:00:00:Z","depth":0,"parameterNumber":3,"parameterNumberName":"V-component_of_WINDS"},"data":[0,0,0,0,0,0,0,0,0,0,0,0,0,0,0,0,0,0,0,0,0,0,0,0,0,0,0,0,0,0,0,0,0,0,0,0,0,0,0,0,0,0,0,0,0,0,0,0,0,0,0,0,0,0,0,0,0,0,3.6933,3.6934,0,3.6999,3.7,3.7001,3.7028,3.7028,3.7028,3.7028,3.7091,3.7093,3.7095,0,0,0,0,0,0,0,0,0,0,0,0,0,3.6829,3.6831,3.6933,3.6934,3.6935,3.6999,3.7,3.7001,3.7028,3.7028,3.7028,3.7027,3.709,3.7093,3.7095,0,0,0,0,0,0,0,0,0,0,0,0,0,3.6882,3.6831,3.6933,3.6956,3.6959,3.6999,3.7,3.7001,3.7028,3.7028,3.7028,3.7027,3.709,3.7092,3.7095,3.7116,0,0,3.7103,3.7105,0,0,0,0,0,0,0,0,3.6879,3.6886,3.6952,3.6955,3.6958,3.7005,3.6986,3.7039,3.7028,3.7002,3.7028,3.7027,3.7062,3.7067,3.708,3.7119,3.7121,3.7104,3.7105,3.7106,3.7107,0,0,0,0,0,0,0,3.6875,3.6883,3.6959,3.6953,3.6957,3.6963,3.697,3.6997,3.7032,3.7004,3.7006,3.7014,3.7064,3.7077,3.7082,3.7122,3.7104,3.7106,3.7108,3.7109,3.7182,3.7182,0,0,0,0,0,0,3.6868,3.688,3.6957,3.6961,3.6917,3.6965,3.6973,3.699,3.7032,3.7038,3.7014,3.7015,3.7073,3.7078,3.7084,3.7112,3.7106,3.7109,3.7111,3.7182,3.7182,3.7182,0,0,0,0,0,0,3.6866,3.6875,3.6955,3.6921,3.6932,3.6967,3.6986,3.6992,3.7005,3.704,3.7046,3.7021,3.7073,3.708,3.7108,3.7114,3.711,3.7113,3.7181,3.7182,3.7182,3.7166,0,0,0,0,0,0,3.6863,3.6874,3.6883,3.6921,3.6934,3.6978,3.6986,3.6993,3.701,3.7012,3.7048,3.7054,3.7073,3.7104,3.7111,3.7118,3.7115,3.7181,3.7182,3.7182,3.7167,3.7166,3.7166,0,0,0,0,0,3.6859,3.6874,3.6883,3.6892,3.6945,3.6978,3.6985,3.7009,3.701,3.7019,3.7042,3.7053,3.7112,3.7107,3.7114,3.7122,3.7181,3.7181,3.7182,3.7167,3.7166,3.7166,0,0,0,0,0,0,3.6834,3.688,3.689,3.6918,3.6945,3.6983,3.6995,3.7007,3.7033,3.7033,3.706,3.7068,3.7093,3.7111,3.7103,3.7145,3.7147,3.715,3.7133,3.7133,3.7133,3.7128,3.7117,0,0,0,0,0,3.6832,3.6856,3.6894,3.6916,3.6929,3.6959,3.6975,3.6991,3.7018,3.7029,3.7053,3.7079,3.7104,3.7119,3.7144,3.7169,3.7178,3.7179,3.7179,3.7178,3.718,3.7196,3.7197,3.7185,3.7185,3.7185,0,0,3.6827,3.6855,3.6869,3.6911,3.6934,3.6957,3.6968,3.6993,3.7011,3.7032,3.7061,3.708,3.711,3.7137,3.715,3.7152,3.7185,3.7179,3.7179,3.7181,3.7196,3.7198,3.7199,3.7185,3.7185,3.7185,0,0,3.6832,3.6855,3.6876,3.6899,3.6933,3.6954,3.6959,3.6996,3.701,3.7039,3.7056,3.7077,3.7119,3.714,3.7157,3.7171,3.7182,3.7178,3.7176,3.7192,3.7192,3.7193,3.7199,3.7201,3.7179,3.7179,3.7179,0,3.6821,3.6859,3.6885,3.6909,3.6928,3.695,3.6972,3.6992,3.7031,3.7043,3.7045,3.71,3.7121,3.7154,3.7158,3.717,3.7177,3.7174,3.719,3.7192,3.7193,3.7199,3.7201,3.7179,3.7179,3.7179,3.7179,0,3.6845,3.6871,3.6884,3.6924,3.6943,3.6966,3.6995,3.7012,3.7026,3.7046,3.7076,3.7104,3.7135,3.7144,3.7157,3.7179,3.7179,3.7185,3.7188,3.7193,3.7199,3.7201,3.7178,3.7178,3.7178,3.7178,0,0,3.6834,3.689,3.6894,3.6913,3.6953,3.6973,3.6996,3.7029,3.7043,3.7069,3.709,3.7126,3.7132,3.7151,3.7167,3.718,3.7191,3.7185,3.7186,3.7186,3.7217,3.7212,3.7214,3.7199,3.7199,3.7199,3.7215,0,3.6845,3.6889,3.6914,3.6948,3.6973,3.6995,3.7016,3.7042,3.7062,3.7085,3.7106,3.7132,3.7138,3.7149,3.7164,3.7186,3.7197,3.7186,3.7217,3.7218,3.721,3.7217,3.7212,3.7225,3.7217,3.7218,3.7218,0,3.6862,3.6891,3.6927,3.6966,3.6977,3.6995,3.7027,3.7049,3.708,3.7093,3.7115,3.7131,3.7157,3.7158,3.7193,3.7185,3.72,3.7213,3.7214,3.7218,3.7218,3.7222,3.723,3.7232,3.7221,3.7221,3.7221,0,3.6851,3.6899,3.6927,3.6943,3.6988,3.7001,3.702,3.705,3.7068,3.7096,3.7108,3.7137,3.7154,3.7176,3.72,3.7199,3.7233,3.7236,3.7245,3.7245,3.7251,3.7251,3.7262,3.726,3.726,3.726,3.726,0,3.686,3.6882,3.6924,3.6941,3.6966,3.6994,3.7018,3.7039,3.7066,3.7088,3.7109,3.7128,3.7159,3.7182,3.7201,3.7228,3.7235,3.7246,3.7251,3.7245,3.7244,3.7255,3.7255,3.7261,3.726,3.726,3.726,0,3.6852,3.6881,3.6914,3.6955,3.6966,3.6983,3.7017,3.7035,3.7057,3.7084,3.7092,3.7125,3.7154,3.718,3.7218,3.7231,3.7258,3.7264,3.7248,3.7251,3.7259,3.7258,3.7278,3.7283,3.7277,3.7277,3.7277,0,3.6856,3.6874,3.6918,3.6934,3.6954,3.698,3.6999,3.7028,3.7047,3.7084,3.7097,3.7128,3.7154,3.7199,3.7226,3.7255,3.7262,3.7267,3.7266,3.726,3.7263,3.7261,3.7264,3.7267,3.7266,3.7266,3.7266,0,3.686,3.6874,3.6902,3.6934,3.6957,3.6984,3.7011,3.7023,3.7057,3.7077,3.7108,3.7128,3.7168,3.7198,3.7231,3.725,3.7264,3.7267,3.727,3.7264,3.7255,3.7261,3.7248,3.7266,3.7266,3.7266,3.7266,3.7266,3.6859,3.6876,3.691,3.694,3.6964,3.699,3.7009,3.7034,3.706,3.7096,3.711,3.7142,3.7173,3.7218,3.7237,3.7262,3.7265,3.727,3.7271,3.7272,3.7271,3.7251,3.7268,3.7268,3.7268,3.7268,3.7268,0,3.6865,3.6888,3.6916,3.6954,3.6978,3.6991,3.7022,3.7041,3.7068,3.7096,3.7122,3.7158,3.7188,3.7218,3.7249,3.7263,3.727,3.727,3.727,3.7274,3.7266,3.7261,3.7264,3.7264,3.7264,3.7264,3.7264,3.7264,3.687,3.6901,3.6919,3.6961,3.6984,3.7016,3.7033,3.7056,3.7079,3.7119,3.7144,3.7164,3.7193,3.7227,3.7255,3.7263,3.7274,3.7272,3.7282,3.7274,3.7274,3.7274,3.7269,3.7274,3.7274,3.7288,3.7288,3.7288]}]]